STARLINK-11326, 62010

Orbit data source: Space-Track

STARLINK-11326, 62010 is a payload satellite owned by SpaceX/Seattle (US) in LEO that was launched on Mon, 18 Nov 2024 UTC via an FALCON 9 launch vehicle from the Air Force Western Test Range (AFWTR). Payloads include a variety of satellites, spacecraft, and rockets equipped with specific instruments for various scientific and technological missions. These include communications satellites like Starlink; space stations such as the ISS; scientific satellites like the Hubble; Earth observation satellites from companies like Planet Labs, Umbra, and HawkEye 360; GPS; miniature CubeSats for education and research; and military/defense satellites.

Not visible in the next 10 days
STARLINK-11326 details
Identifier
62010, 2024-213C
Orbit
LEO
Last TLE update20 hours ago
Origin
Flag of USSpaceX/Seattle (US)
ManufacturerSpaceX/Seattle
MissionOperational spacecraft
Bus & MotorSTARLINK V2M, Unknown motor
Mass730 kg wet, ~700 kg dry
Launch date (UTC)
2024-11-18 (2 weeks ago)
Launch vehicle
FALCON 9
Launch site
Air Force Western Test Range (AFWTR)
Object type
Payload
Rocket body
Debris
Shape & HBRUnknown
Radar Cross SectionLarge (>1 m²)

Expand to show TLE details & history

TLE from 20 hours ago
0 STARLINK-11326
1 62010U 24213C   24336.66668981 -.00403755  00000-0 -13442-2 0  9991
2 62010  53.1618 167.9826 0001109 108.5060 313.3295 15.90407311  3151
Epoch: 2024-12-01T16:00Z
Definitive object data (Epoch: 2024-12-01T16:00:01.999Z)
Latitude45.01519°
Longitude-94.84283°
Altitude305.303 km
Speed7.731 km/s
True Right ascension14h 24m 40s
True Declination44° 49' 54"
Sunlit
Object was in daylight at TLE epoch
Visualization TLE readout
Latitude52.76907°
Longitude-68.59734°
Altitude308.772 km
Speed7.73 km/s
Apparent Right ascension19h 07m 14s
Apparent Declination10° 07' 17"
Sunlit
Object is in daylight
Visualization observer readout
Local Sidereal Time09:28:46
Azimuth41.257° NE
Elevation-30.188°
Doppler factor1
Orbital elements
Apogee altitude302.146 km
Perigee altitude300.664 km
Semi-major axis6,679.542 km
Eccentricity0.0001109
Inclination53.1618°
RAAN167.9826°
Arg. of periapsis108.506°
True anomaly313.32025°
Mean anomaly313.3295°
Eccentric anomaly313.32488°
Mean motion3.97579 °/min
BSTAR-0.0013442
Orbital period90.55 mins
Loading maneuver chart data...
Loading historical data...
Loading historical data...
Loading historical data...
Loading historical data...
Loading historical data...
Loading historical data...
Loading historical data...

STARLINK-11326 Visibility forecast

Observer location: undefined°, undefined

STARLINK-11326 is not visible in the next 10 days
Span
Click to sort rows by Start time (UTC) header in descending order
Start Az.
Max El. time (UTC)
Max El. Az.
Max El.
End time (UTC)
End Az.
|